#datetime,building,power
2022-05-19T00:00:00,mfh,44.23
2022-05-19T00:01:00,mfh,43.86
2022-05-19T00:02:00,mfh,43.96
2022-05-19T00:03:00,mfh,43.20
2022-05-19T00:04:00,mfh,42.45
2022-05-19T00:05:00,mfh,42.39
2022-05-19T00:06:00,mfh,42.55
2022-05-19T00:07:00,mfh,42.96
2022-05-19T00:08:00,mfh,42.93
2022-05-19T00:09:00,mfh,43.37
2022-05-19T00:10:00,mfh,42.93
2022-05-19T00:11:00,mfh,42.37
2022-05-19T00:12:00,mfh,42.24
2022-05-19T00:13:00,mfh,42.97
2022-05-19T00:14:00,mfh,42.16
2022-05-19T00:15:00,mfh,42.20
2022-05-19T00:16:00,mfh,42.73
2022-05-19T00:17:00,mfh,42.77
2022-05-19T00:18:00,mfh,42.66
2022-05-19T00:19:00,mfh,42.80
2022-05-19T00:20:00,mfh,42.49
2022-05-19T00:21:00,mfh,42.95
2022-05-19T00:22:00,mfh,42.01
2022-05-19T00:23:00,mfh,42.09
2022-05-19T00:24:00,mfh,42.73
2022-05-19T00:25:00,mfh,42.96
2022-05-19T00:26:00,mfh,42.97
2022-05-19T00:27:00,mfh,43.04
2022-05-19T00:28:00,mfh,42.49
2022-05-19T00:29:00,mfh,42.29
2022-05-19T00:30:00,mfh,42.39
2022-05-19T00:31:00,mfh,42.24
2022-05-19T00:32:00,mfh,42.99
2022-05-19T00:33:00,mfh,42.92
2022-05-19T00:34:00,mfh,43.04
2022-05-19T00:35:00,mfh,43.38
2022-05-19T00:36:00,mfh,42.37
2022-05-19T00:37:00,mfh,42.26
2022-05-19T00:38:00,mfh,42.31
2022-05-19T00:39:00,mfh,42.45
2022-05-19T00:40:00,mfh,42.86
2022-05-19T00:41:00,mfh,43.03
2022-05-19T00:42:00,mfh,43.03
2022-05-19T00:43:00,mfh,43.88
2022-05-19T00:44:00,mfh,43.98
2022-05-19T00:45:00,mfh,43.19
2022-05-19T00:46:00,mfh,43.00
2022-05-19T00:47:00,mfh,43.15
2022-05-19T00:48:00,mfh,42.08
2022-05-19T00:49:00,mfh,42.91
2022-05-19T00:50:00,mfh,42.81
2022-05-19T00:51:00,mfh,42.91
2022-05-19T00:52:00,mfh,42.76
2022-05-19T00:53:00,mfh,42.13
2022-05-19T00:54:00,mfh,42.14
2022-05-19T00:55:00,mfh,42.32
2022-05-19T00:56:00,mfh,42.67
2022-05-19T00:57:00,mfh,43.27
2022-05-19T00:58:00,mfh,43.27
2022-05-19T00:59:00,mfh,43.16
2022-05-19T01:00:00,mfh,43.41
2022-05-19T01:01:00,mfh,42.59
2022-05-19T01:02:00,mfh,42.64
2022-05-19T01:03:00,mfh,42.52
2022-05-19T01:04:00,mfh,42.52
2022-05-19T01:05:00,mfh,42.60
2022-05-19T01:06:00,mfh,43.11
2022-05-19T01:07:00,mfh,43.19
2022-05-19T01:08:00,mfh,43.06
2022-05-19T01:09:00,mfh,43.21
2022-05-19T01:10:00,mfh,42.39
2022-05-19T01:11:00,mfh,42.45
2022-05-19T01:12:00,mfh,42.42
2022-05-19T01:13:00,mfh,42.87
2022-05-19T01:14:00,mfh,42.98
2022-05-19T01:15:00,mfh,43.09
2022-05-19T01:16:00,mfh,43.67
2022-05-19T01:17:00,mfh,42.86
2022-05-19T01:18:00,mfh,42.12
2022-05-19T01:19:00,mfh,42.17
2022-05-19T01:20:00,mfh,42.37
2022-05-19T01:21:00,mfh,42.35
2022-05-19T01:22:00,mfh,43.16
2022-05-19T01:23:00,mfh,43.03
2022-05-19T01:24:00,mfh,43.59
2022-05-19T01:25:00,mfh,43.59
2022-05-19T01:26:00,mfh,43.31
2022-05-19T01:27:00,mfh,43.27
2022-05-19T01:28:00,mfh,43.45
2022-05-19T01:29:00,mfh,43.43
2022-05-19T01:30:00,mfh,43.61
2022-05-19T01:31:00,mfh,43.30
2022-05-19T01:32:00,mfh,43.48
2022-05-19T01:33:00,mfh,43.72
2022-05-19T01:34:00,mfh,43.59
2022-05-19T01:35:00,mfh,42.99
2022-05-19T01:36:00,mfh,42.58
2022-05-19T01:37:00,mfh,42.61
2022-05-19T01:38:00,mfh,42.46
2022-05-19T01:39:00,mfh,43.09
2022-05-19T01:40:00,mfh,43.09
2022-05-19T01:41:00,mfh,43.12
2022-05-19T01:42:00,mfh,43.12
2022-05-19T01:43:00,mfh,43.28
2022-05-19T01:44:00,mfh,42.56
2022-05-19T01:45:00,mfh,42.57
2022-05-19T01:46:00,mfh,42.48
2022-05-19T01:47:00,mfh,42.25
2022-05-19T01:48:00,mfh,42.91
2022-05-19T01:49:00,mfh,42.90
2022-05-19T01:50:00,mfh,43.59
2022-05-19T01:51:00,mfh,42.89
2022-05-19T01:52:00,mfh,42.30
2022-05-19T01:53:00,mfh,42.19
2022-05-19T01:54:00,mfh,42.97
2022-05-19T01:55:00,mfh,42.44
2022-05-19T01:56:00,mfh,43.20
2022-05-19T01:57:00,mfh,43.02
2022-05-19T01:58:00,mfh,43.19
2022-05-19T01:59:00,mfh,43.06
2022-05-19T02:00:00,mfh,42.36
2022-05-19T02:01:00,mfh,42.40
2022-05-19T02:02:00,mfh,42.45
2022-05-19T02:03:00,mfh,42.59
2022-05-19T02:04:00,mfh,43.11
2022-05-19T02:05:00,mfh,43.29
2022-05-19T02:06:00,mfh,43.22
2022-05-19T02:07:00,mfh,43.23
2022-05-19T02:08:00,mfh,42.25
2022-05-19T02:09:00,mfh,42.72
2022-05-19T02:10:00,mfh,42.26
2022-05-19T02:11:00,mfh,42.95
2022-05-19T02:12:00,mfh,43.94
2022-05-19T02:13:00,mfh,44.39
2022-05-19T02:14:00,mfh,44.21
2022-05-19T02:15:00,mfh,44.21
2022-05-19T02:16:00,mfh,43.22
2022-05-19T02:17:00,mfh,43.63
2022-05-19T02:18:00,mfh,42.68
2022-05-19T02:19:00,mfh,42.50
2022-05-19T02:20:00,mfh,42.81
2022-05-19T02:21:00,mfh,43.31
2022-05-19T02:22:00,mfh,43.29
2022-05-19T02:23:00,mfh,43.28
2022-05-19T02:24:00,mfh,43.52
2022-05-19T02:25:00,mfh,43.69
2022-05-19T02:26:00,mfh,42.79
2022-05-19T02:27:00,mfh,43.18
2022-05-19T02:28:00,mfh,42.95
2022-05-19T02:29:00,mfh,43.68
2022-05-19T02:30:00,mfh,43.53
2022-05-19T02:31:00,mfh,43.65
2022-05-19T02:32:00,mfh,43.43
2022-05-19T02:33:00,mfh,42.90
2022-05-19T02:34:00,mfh,42.66
2022-05-19T02:35:00,mfh,42.76
2022-05-19T02:36:00,mfh,42.56
2022-05-19T02:37:00,mfh,43.18
2022-05-19T02:38:00,mfh,43.29
2022-05-19T02:39:00,mfh,43.28
2022-05-19T02:40:00,mfh,43.38
2022-05-19T02:41:00,mfh,42.55
2022-05-19T02:42:00,mfh,42.93
2022-05-19T02:43:00,mfh,42.33
2022-05-19T02:44:00,mfh,42.85
2022-05-19T02:45:00,mfh,42.45
2022-05-19T02:46:00,mfh,43.16
2022-05-19T02:47:00,mfh,43.00
2022-05-19T02:48:00,mfh,43.08
2022-05-19T02:49:00,mfh,43.10
2022-05-19T02:50:00,mfh,42.35
2022-05-19T02:51:00,mfh,42.34
2022-05-19T02:52:00,mfh,42.33
2022-05-19T02:53:00,mfh,42.47
2022-05-19T02:54:00,mfh,42.72
2022-05-19T02:55:00,mfh,43.48
2022-05-19T02:56:00,mfh,43.97
2022-05-19T02:57:00,mfh,44.03
2022-05-19T02:58:00,mfh,44.98
2022-05-19T02:59:00,mfh,43.60
2022-05-19T03:00:00,mfh,42.45
2022-05-19T03:01:00,mfh,42.50
2022-05-19T03:02:00,mfh,42.36
2022-05-19T03:03:00,mfh,43.14
2022-05-19T03:04:00,mfh,43.53
2022-05-19T03:05:00,mfh,43.24
2022-05-19T03:06:00,mfh,42.93
2022-05-19T03:07:00,mfh,42.25
2022-05-19T03:08:00,mfh,42.78
2022-05-19T03:09:00,mfh,42.39
2022-05-19T03:10:00,mfh,42.87
2022-05-19T03:11:00,mfh,43.15
2022-05-19T03:12:00,mfh,43.24
2022-05-19T03:13:00,mfh,43.15
2022-05-19T03:14:00,mfh,43.25
2022-05-19T03:15:00,mfh,42.43
2022-05-19T03:16:00,mfh,42.41
2022-05-19T03:17:00,mfh,42.47
2022-05-19T03:18:00,mfh,42.41
2022-05-19T03:19:00,mfh,43.17
2022-05-19T03:20:00,mfh,43.07
2022-05-19T03:21:00,mfh,43.23
2022-05-19T03:22:00,mfh,43.04
2022-05-19T03:23:00,mfh,42.72
2022-05-19T03:24:00,mfh,42.68
2022-05-19T03:25:00,mfh,42.66
2022-05-19T03:26:00,mfh,43.16
2022-05-19T03:27:00,mfh,43.44
2022-05-19T03:28:00,mfh,43.38
2022-05-19T03:29:00,mfh,43.39
2022-05-19T03:30:00,mfh,43.93
2022-05-19T03:31:00,mfh,42.69
2022-05-19T03:32:00,mfh,42.96
2022-05-19T03:33:00,mfh,42.55
2022-05-19T03:34:00,mfh,43.12
2022-05-19T03:35:00,mfh,42.48
2022-05-19T03:36:00,mfh,42.96
2022-05-19T03:37:00,mfh,43.29
2022-05-19T03:38:00,mfh,42.98
2022-05-19T03:39:00,mfh,42.98
2022-05-19T03:40:00,mfh,43.19
2022-05-19T03:41:00,mfh,43.05
2022-05-19T03:42:00,mfh,43.19
2022-05-19T03:43:00,mfh,43.44
2022-05-19T03:44:00,mfh,42.96
2022-05-19T03:45:00,mfh,43.13
2022-05-19T03:46:00,mfh,43.01
2022-05-19T03:47:00,mfh,43.14
2022-05-19T03:48:00,mfh,42.27
2022-05-19T03:49:00,mfh,42.50
2022-05-19T03:50:00,mfh,42.47
2022-05-19T03:51:00,mfh,42.98
2022-05-19T03:52:00,mfh,43.19
2022-05-19T03:53:00,mfh,43.57
2022-05-19T03:54:00,mfh,43.65
2022-05-19T03:55:00,mfh,43.44
2022-05-19T03:56:00,mfh,42.92
2022-05-19T03:57:00,mfh,42.99
2022-05-19T03:58:00,mfh,43.19
2022-05-19T03:59:00,mfh,43.27
2022-05-19T04:00:00,mfh,43.99
2022-05-19T04:01:00,mfh,43.91
2022-05-19T04:02:00,mfh,43.99
2022-05-19T04:03:00,mfh,43.99
2022-05-19T04:04:00,mfh,44.16
2022-05-19T04:05:00,mfh,42.98
2022-05-19T04:06:00,mfh,43.10
2022-05-19T04:07:00,mfh,43.05
2022-05-19T04:08:00,mfh,43.04
2022-05-19T04:09:00,mfh,43.84
2022-05-19T04:10:00,mfh,43.77
2022-05-19T04:11:00,mfh,44.92
2022-05-19T04:12:00,mfh,43.89
2022-05-19T04:13:00,mfh,44.12
2022-05-19T04:14:00,mfh,43.30
2022-05-19T04:15:00,mfh,43.44
2022-05-19T04:16:00,mfh,43.25
2022-05-19T04:17:00,mfh,43.27
2022-05-19T04:18:00,mfh,44.80
2022-05-19T04:19:00,mfh,43.94
2022-05-19T04:20:00,mfh,43.82
2022-05-19T04:21:00,mfh,43.84
2022-05-19T04:22:00,mfh,43.35
2022-05-19T04:23:00,mfh,43.33
2022-05-19T04:24:00,mfh,44.30
2022-05-19T04:25:00,mfh,44.60
2022-05-19T04:26:00,mfh,44.89
2022-05-19T04:27:00,mfh,44.75
2022-05-19T04:28:00,mfh,44.09
2022-05-19T04:29:00,mfh,43.94
2022-05-19T04:30:00,mfh,43.38
2022-05-19T04:31:00,mfh,43.24
2022-05-19T04:32:00,mfh,43.37
2022-05-19T04:33:00,mfh,43.20
2022-05-19T04:34:00,mfh,43.33
2022-05-19T04:35:00,mfh,43.75
2022-05-19T04:36:00,mfh,43.74
2022-05-19T04:37:00,mfh,43.71
2022-05-19T04:38:00,mfh,43.78
2022-05-19T04:39:00,mfh,43.09
2022-05-19T04:40:00,mfh,43.08
2022-05-19T04:41:00,mfh,43.27
2022-05-19T04:42:00,mfh,43.19
2022-05-19T04:43:00,mfh,51.84
2022-05-19T04:44:00,mfh,53.12
2022-05-19T04:45:00,mfh,52.10
2022-05-19T04:46:00,mfh,51.75
2022-05-19T04:47:00,mfh,50.90
2022-05-19T04:48:00,mfh,50.98
2022-05-19T04:49:00,mfh,50.39
2022-05-19T04:50:00,mfh,50.32
2022-05-19T04:51:00,mfh,60.09
2022-05-19T04:52:00,mfh,60.37
2022-05-19T04:53:00,mfh,60.28
2022-05-19T04:54:00,mfh,59.86
2022-05-19T04:55:00,mfh,60.53
2022-05-19T04:56:00,mfh,60.00
2022-05-19T04:57:00,mfh,60.01
2022-05-19T04:58:00,mfh,59.79
2022-05-19T04:59:00,mfh,59.67
2022-05-19T05:00:00,mfh,61.19
2022-05-19T05:01:00,mfh,79.88
2022-05-19T05:02:00,mfh,79.69
2022-05-19T05:03:00,mfh,79.81
2022-05-19T05:04:00,mfh,79.43
2022-05-19T05:05:00,mfh,78.93
2022-05-19T05:06:00,mfh,78.87
2022-05-19T05:07:00,mfh,79.10
2022-05-19T05:08:00,mfh,79.66
2022-05-19T05:09:00,mfh,80.31
2022-05-19T05:10:00,mfh,80.30
2022-05-19T05:11:00,mfh,80.30
2022-05-19T05:12:00,mfh,79.68
2022-05-19T05:13:00,mfh,79.00
2022-05-19T05:14:00,mfh,78.96
2022-05-19T05:15:00,mfh,78.45
2022-05-19T05:16:00,mfh,78.46
2022-05-19T05:17:00,mfh,79.10
2022-05-19T05:18:00,mfh,79.05
2022-05-19T05:19:00,mfh,79.14
2022-05-19T05:20:00,mfh,79.19
2022-05-19T05:21:00,mfh,79.11
2022-05-19T05:22:00,mfh,78.61
2022-05-19T05:23:00,mfh,78.90
2022-05-19T05:24:00,mfh,79.03
2022-05-19T05:25:00,mfh,78.72
2022-05-19T05:26:00,mfh,79.41
2022-05-19T05:27:00,mfh,79.18
2022-05-19T05:28:00,mfh,79.37
2022-05-19T05:29:00,mfh,79.30
2022-05-19T05:30:00,mfh,78.55
2022-05-19T05:31:00,mfh,78.70
2022-05-19T05:32:00,mfh,78.44
2022-05-19T05:33:00,mfh,78.50
2022-05-19T05:34:00,mfh,78.79
2022-05-19T05:35:00,mfh,79.60
2022-05-19T05:36:00,mfh,79.29
2022-05-19T05:37:00,mfh,78.70
2022-05-19T05:38:00,mfh,78.72
2022-05-19T05:39:00,mfh,78.92
2022-05-19T05:40:00,mfh,78.98
2022-05-19T05:41:00,mfh,79.01
2022-05-19T05:42:00,mfh,79.58
2022-05-19T05:43:00,mfh,79.18
2022-05-19T05:44:00,mfh,78.90
2022-05-19T05:45:00,mfh,78.69
2022-05-19T05:46:00,mfh,78.79
2022-05-19T05:47:00,mfh,78.05
2022-05-19T05:48:00,mfh,78.24
2022-05-19T05:49:00,mfh,78.02
2022-05-19T05:50:00,mfh,78.24
2022-05-19T05:51:00,mfh,78.75
2022-05-19T05:52:00,mfh,78.86
2022-05-19T05:53:00,mfh,79.44
2022-05-19T05:54:00,mfh,79.41
2022-05-19T05:55:00,mfh,78.94
2022-05-19T05:56:00,mfh,78.97
2022-05-19T05:57:00,mfh,79.19
2022-05-19T05:58:00,mfh,78.43
2022-05-19T05:59:00,mfh,78.94
2022-05-19T06:00:00,mfh,78.81
2022-05-19T06:01:00,mfh,78.69
2022-05-19T06:02:00,mfh,78.89
2022-05-19T06:03:00,mfh,78.87
2022-05-19T06:04:00,mfh,77.86
2022-05-19T06:05:00,mfh,78.03
2022-05-19T06:06:00,mfh,77.93
2022-05-19T06:07:00,mfh,77.91
2022-05-19T06:08:00,mfh,78.53
2022-05-19T06:09:00,mfh,78.53
2022-05-19T06:10:00,mfh,86.48
2022-05-19T06:11:00,mfh,87.22
2022-05-19T06:12:00,mfh,87.01
2022-05-19T06:13:00,mfh,86.99
2022-05-19T06:14:00,mfh,86.74
2022-05-19T06:15:00,mfh,86.53
2022-05-19T06:16:00,mfh,86.65
2022-05-19T06:17:00,mfh,86.45
2022-05-19T06:18:00,mfh,86.44
2022-05-19T06:19:00,mfh,86.34
2022-05-19T06:20:00,mfh,85.94
2022-05-19T06:21:00,mfh,86.01
2022-05-19T06:22:00,mfh,85.88
2022-05-19T06:23:00,mfh,85.89
2022-05-19T06:24:00,mfh,85.98
2022-05-19T06:25:00,mfh,86.02
2022-05-19T06:26:00,mfh,81.41
2022-05-19T06:27:00,mfh,78.30
2022-05-19T06:28:00,mfh,78.54
2022-05-19T06:29:00,mfh,71.25
2022-05-19T06:30:00,mfh,71.51
2022-05-19T06:31:00,mfh,78.47
2022-05-19T06:32:00,mfh,78.31
2022-05-19T06:33:00,mfh,78.96
2022-05-19T06:34:00,mfh,78.74
2022-05-19T06:35:00,mfh,78.69
2022-05-19T06:36:00,mfh,79.53
2022-05-19T06:37:00,mfh,79.05
2022-05-19T06:38:00,mfh,79.64
2022-05-19T06:39:00,mfh,79.87
2022-05-19T06:40:00,mfh,79.72
2022-05-19T06:41:00,mfh,80.45
2022-05-19T06:42:00,mfh,80.13
2022-05-19T06:43:00,mfh,79.44
2022-05-19T06:44:00,mfh,79.41
2022-05-19T06:45:00,mfh,79.85
2022-05-19T06:46:00,mfh,78.81
2022-05-19T06:47:00,mfh,78.93
2022-05-19T06:48:00,mfh,78.93
2022-05-19T06:49:00,mfh,79.33
2022-05-19T06:50:00,mfh,73.31
2022-05-19T06:51:00,mfh,73.35
2022-05-19T06:52:00,mfh,73.41
2022-05-19T06:53:00,mfh,73.57
2022-05-19T06:54:00,mfh,73.73
2022-05-19T06:55:00,mfh,73.17
2022-05-19T06:56:00,mfh,73.34
2022-05-19T06:57:00,mfh,73.14
2022-05-19T06:58:00,mfh,73.22
2022-05-19T06:59:00,mfh,73.46
2022-05-19T07:00:00,mfh,72.57
2022-05-19T07:01:00,mfh,72.50
2022-05-19T07:02:00,mfh,72.45
2022-05-19T07:03:00,mfh,72.02
2022-05-19T07:04:00,mfh,71.89
2022-05-19T07:05:00,mfh,71.91
2022-05-19T07:06:00,mfh,72.26
2022-05-19T07:07:00,mfh,73.30
2022-05-19T07:08:00,mfh,73.14
2022-05-19T07:09:00,mfh,73.46
2022-05-19T07:10:00,mfh,73.36
2022-05-19T07:11:00,mfh,72.86
2022-05-19T07:12:00,mfh,72.19
2022-05-19T07:13:00,mfh,71.83
2022-05-19T07:14:00,mfh,71.64
2022-05-19T07:15:00,mfh,72.48
2022-05-19T07:16:00,mfh,72.10
2022-05-19T07:17:00,mfh,71.95
2022-05-19T07:18:00,mfh,72.15
2022-05-19T07:19:00,mfh,72.00
2022-05-19T07:20:00,mfh,71.36
2022-05-19T07:21:00,mfh,71.12
2022-05-19T07:22:00,mfh,71.43
2022-05-19T07:23:00,mfh,71.42
2022-05-19T07:24:00,mfh,72.65
2022-05-19T07:25:00,mfh,72.67
2022-05-19T07:26:00,mfh,72.64
2022-05-19T07:27:00,mfh,72.82
2022-05-19T07:28:00,mfh,72.05
2022-05-19T07:29:00,mfh,71.53
2022-05-19T07:30:00,mfh,71.51
2022-05-19T07:31:00,mfh,71.40
2022-05-19T07:32:00,mfh,72.03
2022-05-19T07:33:00,mfh,72.20
2022-05-19T07:34:00,mfh,72.32
2022-05-19T07:35:00,mfh,72.29
2022-05-19T07:36:00,mfh,72.36
2022-05-19T07:37:00,mfh,70.76
2022-05-19T07:38:00,mfh,70.69
2022-05-19T07:39:00,mfh,70.83
2022-05-19T07:40:00,mfh,70.71
2022-05-19T07:41:00,mfh,71.45
2022-05-19T07:42:00,mfh,71.34
2022-05-19T07:43:00,mfh,71.71
2022-05-19T07:44:00,mfh,71.37
2022-05-19T07:45:00,mfh,70.50
2022-05-19T07:46:00,mfh,70.58
2022-05-19T07:47:00,mfh,70.43
2022-05-19T07:48:00,mfh,70.50
2022-05-19T07:49:00,mfh,71.05
2022-05-19T07:50:00,mfh,70.95
2022-05-19T07:51:00,mfh,71.02
2022-05-19T07:52:00,mfh,71.32
2022-05-19T07:53:00,mfh,70.51
2022-05-19T07:54:00,mfh,70.50
2022-05-19T07:55:00,mfh,70.67
2022-05-19T07:56:00,mfh,70.64
2022-05-19T07:57:00,mfh,71.29
2022-05-19T07:58:00,mfh,71.30
2022-05-19T07:59:00,mfh,71.45
2022-05-19T08:00:00,mfh,71.42
2022-05-19T08:01:00,mfh,70.82
2022-05-19T08:02:00,mfh,70.76
2022-05-19T08:03:00,mfh,71.74
2022-05-19T08:04:00,mfh,70.83
2022-05-19T08:05:00,mfh,71.36
2022-05-19T08:06:00,mfh,71.37
2022-05-19T08:07:00,mfh,71.37
2022-05-19T08:08:00,mfh,71.36
2022-05-19T08:09:00,mfh,72.34
2022-05-19T08:10:00,mfh,72.31
2022-05-19T08:11:00,mfh,72.43
2022-05-19T08:12:00,mfh,72.61
2022-05-19T08:13:00,mfh,72.65
2022-05-19T08:14:00,mfh,72.33
2022-05-19T08:15:00,mfh,72.42
2022-05-19T08:16:00,mfh,72.73
2022-05-19T08:17:00,mfh,72.83
2022-05-19T08:18:00,mfh,72.49
2022-05-19T08:19:00,mfh,72.10
2022-05-19T08:20:00,mfh,72.17
2022-05-19T08:21:00,mfh,72.04
2022-05-19T08:22:00,mfh,72.78
2022-05-19T08:23:00,mfh,72.24
2022-05-19T08:24:00,mfh,71.40
2022-05-19T08:25:00,mfh,68.43
2022-05-19T08:26:00,mfh,69.54
2022-05-19T08:27:00,mfh,67.61
2022-05-19T08:28:00,mfh,67.72
2022-05-19T08:29:00,mfh,67.76
2022-05-19T08:30:00,mfh,68.38
2022-05-19T08:31:00,mfh,68.80
2022-05-19T08:32:00,mfh,68.84
2022-05-19T08:33:00,mfh,69.19
2022-05-19T08:34:00,mfh,69.02
2022-05-19T08:35:00,mfh,68.25
2022-05-19T08:36:00,mfh,68.23
2022-05-19T08:37:00,mfh,68.13
2022-05-19T08:38:00,mfh,67.96
2022-05-19T08:39:00,mfh,68.52
2022-05-19T08:40:00,mfh,68.32
2022-05-19T08:41:00,mfh,68.75
2022-05-19T08:42:00,mfh,68.78
2022-05-19T08:43:00,mfh,68.69
2022-05-19T08:44:00,mfh,68.14
2022-05-19T08:45:00,mfh,67.97
2022-05-19T08:46:00,mfh,68.36
2022-05-19T08:47:00,mfh,68.30
2022-05-19T08:48:00,mfh,69.00
2022-05-19T08:49:00,mfh,68.94
2022-05-19T08:50:00,mfh,70.46
2022-05-19T08:51:00,mfh,75.26
2022-05-19T08:52:00,mfh,86.31
2022-05-19T08:53:00,mfh,86.09
2022-05-19T08:54:00,mfh,85.88
2022-05-19T08:55:00,mfh,85.33
2022-05-19T08:56:00,mfh,85.69
2022-05-19T08:57:00,mfh,85.48
2022-05-19T08:58:00,mfh,85.25
2022-05-19T08:59:00,mfh,85.14
2022-05-19T09:00:00,mfh,84.23
2022-05-19T09:01:00,mfh,86.76
2022-05-19T09:02:00,mfh,86.84
2022-05-19T09:03:00,mfh,86.84
2022-05-19T09:04:00,mfh,86.72
2022-05-19T09:05:00,mfh,86.84
2022-05-19T09:06:00,mfh,86.61
2022-05-19T09:07:00,mfh,86.58
2022-05-19T09:08:00,mfh,86.55
2022-05-19T09:09:00,mfh,86.12
2022-05-19T09:10:00,mfh,79.23
2022-05-19T09:11:00,mfh,72.41
2022-05-19T09:12:00,mfh,81.57
2022-05-19T09:13:00,mfh,86.38
2022-05-19T09:14:00,mfh,86.45
2022-05-19T09:15:00,mfh,86.43
2022-05-19T09:16:00,mfh,86.38
2022-05-19T09:17:00,mfh,86.19
2022-05-19T09:18:00,mfh,86.13
2022-05-19T09:19:00,mfh,86.00
2022-05-19T09:20:00,mfh,85.99
2022-05-19T09:21:00,mfh,86.22
2022-05-19T09:22:00,mfh,86.17
2022-05-19T09:23:00,mfh,86.17
2022-05-19T09:24:00,mfh,86.09
2022-05-19T09:25:00,mfh,85.86
2022-05-19T09:26:00,mfh,86.11
2022-05-19T09:27:00,mfh,85.76
2022-05-19T09:28:00,mfh,85.79
2022-05-19T09:29:00,mfh,85.79
2022-05-19T09:30:00,mfh,86.05
2022-05-19T09:31:00,mfh,86.17
2022-05-19T09:32:00,mfh,86.15
2022-05-19T09:33:00,mfh,86.11
2022-05-19T09:34:00,mfh,85.92
2022-05-19T09:35:00,mfh,85.92
2022-05-19T09:36:00,mfh,86.11
2022-05-19T09:37:00,mfh,86.49
2022-05-19T09:38:00,mfh,86.70
2022-05-19T09:39:00,mfh,86.80
2022-05-19T09:40:00,mfh,86.63
2022-05-19T09:41:00,mfh,86.83
2022-05-19T09:42:00,mfh,86.61
2022-05-19T09:43:00,mfh,86.79
2022-05-19T09:44:00,mfh,86.75
2022-05-19T09:45:00,mfh,86.47
2022-05-19T09:46:00,mfh,86.64
2022-05-19T09:47:00,mfh,86.64
2022-05-19T09:48:00,mfh,86.67
2022-05-19T09:49:00,mfh,86.72
2022-05-19T09:50:00,mfh,86.55
2022-05-19T09:51:00,mfh,86.50
2022-05-19T09:52:00,mfh,86.46
2022-05-19T09:53:00,mfh,86.67
2022-05-19T09:54:00,mfh,86.53
2022-05-19T09:55:00,mfh,86.76
2022-05-19T09:56:00,mfh,86.71
2022-05-19T09:57:00,mfh,86.70
2022-05-19T09:58:00,mfh,86.73
2022-05-19T09:59:00,mfh,86.65
2022-05-19T10:00:00,mfh,86.66
2022-05-19T10:01:00,mfh,86.70
2022-05-19T10:02:00,mfh,86.69
2022-05-19T10:03:00,mfh,86.85
2022-05-19T10:04:00,mfh,86.90
2022-05-19T10:05:00,mfh,86.95
2022-05-19T10:06:00,mfh,87.01
2022-05-19T10:07:00,mfh,86.75
2022-05-19T10:08:00,mfh,87.09
2022-05-19T10:09:00,mfh,87.07
2022-05-19T10:10:00,mfh,86.80
2022-05-19T10:11:00,mfh,87.00
2022-05-19T10:12:00,mfh,87.06
2022-05-19T10:13:00,mfh,86.95
2022-05-19T10:14:00,mfh,87.01
2022-05-19T10:15:00,mfh,86.77
2022-05-19T10:16:00,mfh,86.65
2022-05-19T10:17:00,mfh,86.63
2022-05-19T10:18:00,mfh,86.10
2022-05-19T10:19:00,mfh,86.09
2022-05-19T10:20:00,mfh,86.34
2022-05-19T10:21:00,mfh,86.31
2022-05-19T10:22:00,mfh,86.37
2022-05-19T10:23:00,mfh,86.33
2022-05-19T10:24:00,mfh,86.20
2022-05-19T10:25:00,mfh,86.20
2022-05-19T10:26:00,mfh,86.13
2022-05-19T10:27:00,mfh,86.37
2022-05-19T10:28:00,mfh,86.43
2022-05-19T10:29:00,mfh,86.70
2022-05-19T10:30:00,mfh,86.65
2022-05-19T10:31:00,mfh,86.34
2022-05-19T10:32:00,mfh,86.40
2022-05-19T10:33:00,mfh,86.19
2022-05-19T10:34:00,mfh,86.20
2022-05-19T10:35:00,mfh,86.22
2022-05-19T10:36:00,mfh,86.85
2022-05-19T10:37:00,mfh,87.05
2022-05-19T10:38:00,mfh,87.04
2022-05-19T10:39:00,mfh,87.09
2022-05-19T10:40:00,mfh,87.54
2022-05-19T10:41:00,mfh,87.02
2022-05-19T10:42:00,mfh,86.92
2022-05-19T10:43:00,mfh,86.99
2022-05-19T10:44:00,mfh,87.03
2022-05-19T10:45:00,mfh,87.17
2022-05-19T10:46:00,mfh,87.67
2022-05-19T10:47:00,mfh,87.07
2022-05-19T10:48:00,mfh,87.19
2022-05-19T10:49:00,mfh,87.21
2022-05-19T10:50:00,mfh,87.19
2022-05-19T10:51:00,mfh,87.34
2022-05-19T10:52:00,mfh,87.02
2022-05-19T10:53:00,mfh,87.40
2022-05-19T10:54:00,mfh,87.08
2022-05-19T10:55:00,mfh,87.19
2022-05-19T10:56:00,mfh,87.10
2022-05-19T10:57:00,mfh,87.07
2022-05-19T10:58:00,mfh,86.35
2022-05-19T10:59:00,mfh,86.26
2022-05-19T11:00:00,mfh,86.50
2022-05-19T11:01:00,mfh,86.30
2022-05-19T11:02:00,mfh,86.54
2022-05-19T11:03:00,mfh,86.63
2022-05-19T11:04:00,mfh,86.78
2022-05-19T11:05:00,mfh,86.60
2022-05-19T11:06:00,mfh,86.85
2022-05-19T11:07:00,mfh,86.10
2022-05-19T11:08:00,mfh,86.48
2022-05-19T11:09:00,mfh,86.46
2022-05-19T11:10:00,mfh,87.19
2022-05-19T11:11:00,mfh,86.49
2022-05-19T11:12:00,mfh,86.98
2022-05-19T11:13:00,mfh,87.32
2022-05-19T11:14:00,mfh,87.30
2022-05-19T11:15:00,mfh,87.46
2022-05-19T11:16:00,mfh,87.66
2022-05-19T11:17:00,mfh,87.63
2022-05-19T11:18:00,mfh,88.29
2022-05-19T11:19:00,mfh,88.12
2022-05-19T11:20:00,mfh,88.31
2022-05-19T11:21:00,mfh,88.19
2022-05-19T11:22:00,mfh,87.92
2022-05-19T11:23:00,mfh,88.17
2022-05-19T11:24:00,mfh,88.02
2022-05-19T11:25:00,mfh,87.99
2022-05-19T11:26:00,mfh,88.05
2022-05-19T11:27:00,mfh,87.89
2022-05-19T11:28:00,mfh,87.75
2022-05-19T11:29:00,mfh,87.87
2022-05-19T11:30:00,mfh,87.77
2022-05-19T11:31:00,mfh,87.71
2022-05-19T11:32:00,mfh,87.53
2022-05-19T11:33:00,mfh,87.67
2022-05-19T11:34:00,mfh,87.68
2022-05-19T11:35:00,mfh,87.90
2022-05-19T11:36:00,mfh,87.83
2022-05-19T11:37:00,mfh,88.18
2022-05-19T11:38:00,mfh,88.00
2022-05-19T11:39:00,mfh,87.78
2022-05-19T11:40:00,mfh,87.75
2022-05-19T11:41:00,mfh,87.54
2022-05-19T11:42:00,mfh,87.56
2022-05-19T11:43:00,mfh,87.73
2022-05-19T11:44:00,mfh,87.87
2022-05-19T11:45:00,mfh,88.07
2022-05-19T11:46:00,mfh,88.16
2022-05-19T11:47:00,mfh,87.55
2022-05-19T11:48:00,mfh,87.36
2022-05-19T11:49:00,mfh,87.29
2022-05-19T11:50:00,mfh,87.51
2022-05-19T11:51:00,mfh,87.05
2022-05-19T11:52:00,mfh,87.23
2022-05-19T11:53:00,mfh,87.45
2022-05-19T11:54:00,mfh,87.34
2022-05-19T11:55:00,mfh,87.26
2022-05-19T11:56:00,mfh,87.13
2022-05-19T11:57:00,mfh,87.34
2022-05-19T11:58:00,mfh,87.37
2022-05-19T11:59:00,mfh,87.50
2022-05-19T12:00:00,mfh,87.43
2022-05-19T12:01:00,mfh,87.68
2022-05-19T12:02:00,mfh,86.85
2022-05-19T12:03:00,mfh,87.18
2022-05-19T12:04:00,mfh,87.16
2022-05-19T12:05:00,mfh,86.89
2022-05-19T12:06:00,mfh,87.54
2022-05-19T12:07:00,mfh,86.97
2022-05-19T12:08:00,mfh,86.94
2022-05-19T12:09:00,mfh,87.33
2022-05-19T12:10:00,mfh,87.16
2022-05-19T12:11:00,mfh,87.29
2022-05-19T12:12:00,mfh,87.30
2022-05-19T12:13:00,mfh,87.38
2022-05-19T12:14:00,mfh,87.45
2022-05-19T12:15:00,mfh,87.28
2022-05-19T12:16:00,mfh,87.15
2022-05-19T12:17:00,mfh,87.59
2022-05-19T12:18:00,mfh,87.72
2022-05-19T12:19:00,mfh,87.64
2022-05-19T12:20:00,mfh,87.69
2022-05-19T12:21:00,mfh,87.42
2022-05-19T12:22:00,mfh,87.45
2022-05-19T12:23:00,mfh,87.47
2022-05-19T12:24:00,mfh,87.36
2022-05-19T12:25:00,mfh,87.43
2022-05-19T12:26:00,mfh,87.71
2022-05-19T12:27:00,mfh,87.87
2022-05-19T12:28:00,mfh,88.25
2022-05-19T12:29:00,mfh,88.07
2022-05-19T12:30:00,mfh,87.85
2022-05-19T12:31:00,mfh,87.77
2022-05-19T12:32:00,mfh,87.77
2022-05-19T12:33:00,mfh,87.74
2022-05-19T12:34:00,mfh,87.78
2022-05-19T12:35:00,mfh,87.85
2022-05-19T12:36:00,mfh,87.79
2022-05-19T12:37:00,mfh,87.73
2022-05-19T12:38:00,mfh,87.52
2022-05-19T12:39:00,mfh,87.63
2022-05-19T12:40:00,mfh,87.57
2022-05-19T12:41:00,mfh,87.56
2022-05-19T12:42:00,mfh,87.60
2022-05-19T12:43:00,mfh,87.96
2022-05-19T12:44:00,mfh,88.02
2022-05-19T12:45:00,mfh,88.20
2022-05-19T12:46:00,mfh,88.16
2022-05-19T12:47:00,mfh,87.68
2022-05-19T12:48:00,mfh,87.34
2022-05-19T12:49:00,mfh,87.40
2022-05-19T12:50:00,mfh,87.30
2022-05-19T12:51:00,mfh,87.37
2022-05-19T12:52:00,mfh,87.34
2022-05-19T12:53:00,mfh,87.29
2022-05-19T12:54:00,mfh,87.39
2022-05-19T12:55:00,mfh,87.59
2022-05-19T12:56:00,mfh,87.03
2022-05-19T12:57:00,mfh,87.06
2022-05-19T12:58:00,mfh,87.14
2022-05-19T12:59:00,mfh,87.80
2022-05-19T13:00:00,mfh,84.89
2022-05-19T13:01:00,mfh,84.69
2022-05-19T13:02:00,mfh,84.45
2022-05-19T13:03:00,mfh,84.13
2022-05-19T13:04:00,mfh,83.93
2022-05-19T13:05:00,mfh,84.38
2022-05-19T13:06:00,mfh,84.42
2022-05-19T13:07:00,mfh,84.92
2022-05-19T13:08:00,mfh,84.74
2022-05-19T13:09:00,mfh,84.81
2022-05-19T13:10:00,mfh,85.12
2022-05-19T13:11:00,mfh,84.78
2022-05-19T13:12:00,mfh,83.99
2022-05-19T13:13:00,mfh,84.00
2022-05-19T13:14:00,mfh,83.95
2022-05-19T13:15:00,mfh,83.82
2022-05-19T13:16:00,mfh,84.34
2022-05-19T13:17:00,mfh,83.97
2022-05-19T13:18:00,mfh,84.08